Simultaneous Nadir Overpasses (SNOs) Predictions

Prediction of SNOs between NOAA-19 and TERRA Satellite Orbit:

Table of predicted SNOs for the next 14.0 days since TLE Epoch: 2/7/2015
Index Date (NOAA-19) Time (NOAA-19) Lat,Lon (NOAA-19) SZA (NOAA-19 ) Date (TERRA) Time (TERRA) Lat,Lon (TERRA) SZA (TERRA ) Distance(km) Time Diff (sec)
1 02/08/2015 06:38:30 71.51, 83.26 86.48 02/08/2015 06:38:40 71.52, 83.28 86.49 2.05 10
2 02/08/2015 07:29:23 -71.41,-109.30 93.63 02/08/2015 07:28:10 -71.41,-109.28 93.63 0.79 73
3 02/10/2015 11:22:02 71.55, 12.33 85.82 02/10/2015 11:23:01 71.56, 12.25 85.83 3.30 59
4 02/10/2015 12:12:55 -71.46, 179.77 94.29 02/10/2015 12:12:31 -71.46, 179.70 94.29 2.45 24
5 02/12/2015 16:56:28 -71.56, 108.74 94.91 02/12/2015 16:56:53 -71.56, 108.78 94.91 1.48 25
6 02/12/2015 17:47:33 71.40, -83.75 84.92 02/12/2015 17:46:21 71.41, -83.82 84.93 3.19 72
7 02/14/2015 21:40:04 -71.81, 37.41 95.39 02/14/2015 21:41:16 -71.73, 37.95 95.48 20.93 72
8 02/14/2015 22:31:06 71.51,-154.80 84.29 02/14/2015 22:30:45 71.53,-154.75 84.31 2.72 21
9 02/17/2015 03:14:38 71.58, 134.23 83.60 02/17/2015 03:15:12 71.60, 134.25 83.62 2.12 34
10 02/17/2015 04:05:31 -71.47, -58.30 96.53 02/17/2015 04:04:43 -71.45, -58.37 96.55 3.44 48
11 02/19/2015 07:58:24 72.36, 61.85 83.63 02/19/2015 07:59:30 72.26, 64.28 83.51 82.90 66
12 02/19/2015 08:49:04 -71.58,-129.36 97.18 02/19/2015 08:49:11 -71.58,-129.28 97.19 2.98 7




NCC Satellite Simultaneous Nadir Overpasses (SNOs) Prediction Service
